Location: Les Salelles
(44.4192°N, 4.1044°E)
Time: 18:56:08
(UTC+00:00)

Meteor 1-21 Rocket - Pass Details

Date: 20 January 2021
Orbit: 834 x 906 km, 81.2° (Epoch: 04 March)

Event Time Altitude Azimuth Distance (km) Brightness Sun altitude
Rises 18:10:09 0° 178° (S) 3,372 7.5 -16.5°
Reaches altitude 10° 18:12:34 10° 175° (S) 2,439 6.7 -16.9°
Maximum altitude 18:18:00 62° 96° (E) 936 4.1 -17.9°
Drops below altitude 10° 18:23:29 10° 17° (NNE) 2,463 6.4 -18.8°
Enters shadow 18:25:38 - 14° (NNE) 3,295 7.0 -19.2°
